Tracking 30115 objects as of 9-Feb-2025
HD Live streaming from Space Station
objects crossing your sky now

DELTA 1 DEB

Track DELTA 1 DEB now!
10-day predictions


NORAD ID: 5971
Int'l Code: 1967-006E
Perigee: 1,287.8 km
Apogee: 1,462.2 km
Inclination: 101.9 °
Period: 113.1 minutes
Semi major axis: 7746 km
RCS: 0.0243 m2 (small)
Launch date: January 26, 1967
Source: United States (US)
Launch site: AIR FORCE WESTERN TEST RANGE (AFWTR)

Note: This is SATELLITE DEBRIS
Your satellite tracking list
Your tracking list is empty




NASA's NSSDC Master Catalog

Two Line Element Set (TLE):
1 05971U 67006E   25039.56228128 -.00000039  00000-0  48470-4 0  9994
2 05971 101.9220 317.7172 0112559 230.5461 303.8466 12.73460396698252
Source of the keplerian elements: AFSPC